Home   Weather   Mödling   Past weeks

Flag for Austria Past Weather in Mödling, Lower Austria, Austria — Yesterday and Last 2 Weeks

Now
30 °F

Fog.


Feels Like: 30 °F
Forecast: 20 / 31 °F
Wind: 1 mph from Northwest

Location: Wien / Hohe Warte

Current Time: Dec 6, 2016 at 1:59:58 am

Latest Report: Dec 6, 2016 at 1:00 am


Visibility: 3 mi

Pressure: 30.40 "Hg

Humidity: 87%

Dew Point: 27 °F

Location of MödlingLocation

Past Weather in Mödling — Graph

°F

Mödling Temperature Yesterday

Maximum temperature yesterday: 32 °F (at 2:00 pm)
Minimum temperature yesterday: 26 °F (at 6:00 am)
Average temperature yesterday: 28 °F

High & Low Weather Summary for the Past Weeks

 TemperatureHumidityPressure
High64 °F (Nov 22, 1:00 pm)98% (Nov 25, 1:00 am)30.56 "Hg (Nov 25, 1:00 am)
Low24 °F (Dec 4, 6:00 am)41% (Nov 30, 12:00 pm)29.80 "Hg (Dec 2, 7:00 am)
Average40 °F79%30.19 "Hg
* Reported Nov 21 12:00 am — Dec 6 12:00 am, Mödling, Weather by CustomWeather, © 2016

Note: Actual official high and low records may vary slightly from our data, if they occured in-between our weather recording intervals... More about our weather records

Advertising

Mödling Weather History for the Previous 24 Hours

Scroll right to see more
 ConditionsComfort  
Time TempWeatherWind HumidityBarometerVisibility
12:00 am
Tue, Dec 6
30 °FChilly.2 mph87%30.40 "HgN/A
11:00 pm
Mon, Dec 5
29 °FChilly.1 mph90%30.41 "HgN/A
10:00 pm29 °FChilly.1 mph91%30.42 "HgN/A
9:00 pm28 °FChilly.2 mph91%30.42 "HgN/A
8:00 pm27 °FPassing clouds.2 mph94%30.42 "Hg3 mi
7:00 pm27 °FChilly.2 mph91%30.42 "HgN/A
6:00 pm28 °FFog.No wind91%30.43 "Hg2 mi
5:00 pm28 °FChilly.1 mph90%30.43 "HgN/A
4:00 pm30 °FFog.2 mph86%30.42 "Hg2 mi
3:00 pm31 °FOvercast.1 mph84%30.42 "Hg5 mi
2:00 pm32 °FOvercast.2 mph85%30.42 "Hg5 mi
1:00 pm31 °FOvercast.1 mph84%30.44 "Hg5 mi
12:00 pm31 °FOvercast.No wind85%30.45 "Hg5 mi
11:00 am30 °FOvercast.1 mph87%30.46 "Hg5 mi
10:00 am29 °FLow clouds.2 mph90%30.47 "Hg5 mi
9:00 am28 °FScattered clouds.2 mph91%30.47 "Hg5 mi
8:00 am26 °FScattered clouds.2 mph91%30.46 "Hg5 mi
7:00 am26 °FPassing clouds.2 mph91%30.46 "Hg4 mi
6:00 am26 °FPassing clouds.2 mph91%30.46 "Hg4 mi
5:00 am26 °FChilly.1 mph91%30.47 "HgN/A
4:00 am26 °FChilly.1 mph91%30.47 "HgN/A
3:00 am27 °FChilly.No wind89%30.48 "HgN/A
2:00 am27 °FChilly.2 mph91%30.48 "HgN/A
1:00 am26 °FClear.1 mph92%30.49 "Hg4 mi
Weather by CustomWeather, © 2016

See weather overviewHow to use our weather pages